Year,Month,Day,Hour,Minute,Value (Times are PST for temperature in C)
2013,04,09,00,00,9.10
2013,04,09,00,01,9.10
2013,04,09,00,02,9.00
2013,04,09,00,03,9.00
2013,04,09,00,04,9.00
2013,04,09,00,05,9.00
2013,04,09,00,06,9.00
2013,04,09,00,07,9.00
2013,04,09,00,08,9.00
2013,04,09,00,09,9.00
2013,04,09,00,10,9.00
2013,04,09,00,11,9.00
2013,04,09,00,12,9.00
2013,04,09,00,13,9.00
2013,04,09,00,14,9.00
2013,04,09,00,15,9.00
2013,04,09,00,16,9.00
2013,04,09,00,17,9.00
2013,04,09,00,18,9.00
2013,04,09,00,19,9.00
2013,04,09,00,20,9.00
2013,04,09,00,21,9.00
2013,04,09,00,22,9.00
2013,04,09,00,23,9.00
2013,04,09,00,24,9.00
2013,04,09,00,25,9.00
2013,04,09,00,26,8.90
2013,04,09,00,27,8.90
2013,04,09,00,28,8.90
2013,04,09,00,29,8.90
2013,04,09,00,30,8.90
2013,04,09,00,31,8.90
2013,04,09,00,32,8.90
2013,04,09,00,33,8.90
2013,04,09,00,34,8.90
2013,04,09,00,35,8.90
2013,04,09,00,36,8.90
2013,04,09,00,37,8.90
2013,04,09,00,38,8.90
2013,04,09,00,39,8.90
2013,04,09,00,40,8.90
2013,04,09,00,41,8.90
2013,04,09,00,42,8.90
2013,04,09,00,43,8.90
2013,04,09,00,44,8.90
2013,04,09,00,45,8.90
2013,04,09,00,46,8.90
2013,04,09,00,47,8.90
2013,04,09,00,48,8.90
2013,04,09,00,49,8.90
2013,04,09,00,50,8.90
2013,04,09,00,51,8.90
2013,04,09,00,52,8.90
2013,04,09,00,53,8.90
2013,04,09,00,54,8.90
2013,04,09,00,55,8.90
2013,04,09,00,56,8.90
2013,04,09,00,57,8.90
2013,04,09,00,58,8.90
2013,04,09,00,59,8.90
2013,04,09,01,00,8.90
2013,04,09,01,01,8.90
2013,04,09,01,02,8.90
2013,04,09,01,03,8.90
2013,04,09,01,04,8.90
2013,04,09,01,05,9.00
2013,04,09,01,06,9.00
2013,04,09,01,07,9.00
2013,04,09,01,08,9.00
2013,04,09,01,09,9.00
2013,04,09,01,10,9.00
2013,04,09,01,11,9.00
2013,04,09,01,12,9.00
2013,04,09,01,13,9.00
2013,04,09,01,14,9.00
2013,04,09,01,15,9.00
2013,04,09,01,16,9.00
2013,04,09,01,17,9.00
2013,04,09,01,18,9.00
2013,04,09,01,19,9.00
2013,04,09,01,20,9.00
2013,04,09,01,21,9.00
2013,04,09,01,22,9.00
2013,04,09,01,23,9.00
2013,04,09,01,24,9.00
2013,04,09,01,25,9.00
2013,04,09,01,26,9.00
2013,04,09,01,27,9.00
2013,04,09,01,28,9.00
2013,04,09,01,29,9.00
2013,04,09,01,30,9.00
2013,04,09,01,31,9.00
2013,04,09,01,32,9.00
2013,04,09,01,33,9.00
2013,04,09,01,34,9.00
2013,04,09,01,35,9.00
2013,04,09,01,36,9.00
2013,04,09,01,37,8.90
2013,04,09,01,38,8.90
2013,04,09,01,39,8.90
2013,04,09,01,40,8.90
2013,04,09,01,41,8.90
2013,04,09,01,42,8.90
2013,04,09,01,43,8.90
2013,04,09,01,44,8.90
2013,04,09,01,45,8.90
2013,04,09,01,46,8.90
2013,04,09,01,47,8.90
2013,04,09,01,48,8.90
2013,04,09,01,49,8.90
2013,04,09,01,50,8.90
2013,04,09,01,51,8.90
2013,04,09,01,52,8.90
2013,04,09,01,53,8.90
2013,04,09,01,54,8.90
2013,04,09,01,55,8.90
2013,04,09,01,56,8.90
2013,04,09,01,57,8.90
2013,04,09,01,58,8.90
2013,04,09,01,59,8.90
2013,04,09,02,00,8.90
2013,04,09,02,01,8.90
2013,04,09,02,02,8.90
2013,04,09,02,03,8.90
2013,04,09,02,04,8.90
2013,04,09,02,05,8.90
2013,04,09,02,06,8.90
2013,04,09,02,07,8.90
2013,04,09,02,08,8.80
2013,04,09,02,09,8.90
2013,04,09,02,10,8.80
2013,04,09,02,11,8.80
2013,04,09,02,12,8.80
2013,04,09,02,13,8.80
2013,04,09,02,14,8.80
2013,04,09,02,15,8.80
2013,04,09,02,16,8.80
2013,04,09,02,17,8.80
2013,04,09,02,18,8.80
2013,04,09,02,19,8.80
2013,04,09,02,20,8.80
2013,04,09,02,21,8.80
2013,04,09,02,22,8.80
2013,04,09,02,23,8.80
2013,04,09,02,24,8.80
2013,04,09,02,25,8.80
2013,04,09,02,26,8.80
2013,04,09,02,27,8.80
2013,04,09,02,28,8.80
2013,04,09,02,29,8.80
2013,04,09,02,30,8.80
2013,04,09,02,31,8.80
2013,04,09,02,32,8.80
2013,04,09,02,33,8.80
2013,04,09,02,34,8.80
2013,04,09,02,35,8.80
2013,04,09,02,36,8.80
2013,04,09,02,37,8.80
2013,04,09,02,38,8.80
2013,04,09,02,39,8.80
2013,04,09,02,40,8.80
2013,04,09,02,41,8.80
2013,04,09,02,42,8.80
2013,04,09,02,43,8.80
2013,04,09,02,44,8.70
2013,04,09,02,45,8.70
2013,04,09,02,46,8.70
2013,04,09,02,47,8.70
2013,04,09,02,48,8.70
2013,04,09,02,49,8.70
2013,04,09,02,50,8.70
2013,04,09,02,51,8.70
2013,04,09,02,52,8.70
2013,04,09,02,53,8.70
2013,04,09,02,54,8.70
2013,04,09,02,55,8.70
2013,04,09,02,56,8.70
2013,04,09,02,57,8.70
2013,04,09,02,58,8.70
2013,04,09,02,59,8.70
2013,04,09,03,00,8.70
2013,04,09,03,01,8.70
2013,04,09,03,02,8.70
2013,04,09,03,03,8.70
2013,04,09,03,04,8.70
2013,04,09,03,05,8.70
2013,04,09,03,06,8.70
2013,04,09,03,07,8.70
2013,04,09,03,08,8.70
2013,04,09,03,09,8.70
2013,04,09,03,10,8.70
2013,04,09,03,11,8.70
2013,04,09,03,12,8.70
2013,04,09,03,13,8.70
2013,04,09,03,14,8.70
2013,04,09,03,15,8.70
2013,04,09,03,16,8.70
2013,04,09,03,17,8.70
2013,04,09,03,18,8.70
2013,04,09,03,19,8.70
2013,04,09,03,20,8.70
2013,04,09,03,21,8.70
2013,04,09,03,22,8.70
2013,04,09,03,23,8.60
2013,04,09,03,24,8.50
2013,04,09,03,25,8.50
2013,04,09,03,26,8.40
2013,04,09,03,27,8.30
2013,04,09,03,28,8.30
2013,04,09,03,29,8.30
2013,04,09,03,30,8.20
2013,04,09,03,31,8.20
2013,04,09,03,32,8.20
2013,04,09,03,33,8.10
2013,04,09,03,34,8.10
2013,04,09,03,35,8.10
2013,04,09,03,36,8.10
2013,04,09,03,37,8.00
2013,04,09,03,38,8.00
2013,04,09,03,39,8.00
2013,04,09,03,40,8.00
2013,04,09,03,41,7.90
2013,04,09,03,42,7.90
2013,04,09,03,43,7.90
2013,04,09,03,44,7.90
2013,04,09,03,45,7.90
2013,04,09,03,46,7.90
2013,04,09,03,47,7.90
2013,04,09,03,48,7.90
2013,04,09,03,49,7.90
2013,04,09,03,50,7.90
2013,04,09,03,51,7.90
2013,04,09,03,52,7.90
2013,04,09,03,53,7.90
2013,04,09,03,54,7.90
2013,04,09,03,55,7.90
2013,04,09,03,56,7.90
2013,04,09,03,57,7.90
2013,04,09,03,58,7.90
2013,04,09,03,59,7.90
2013,04,09,04,00,7.90
2013,04,09,04,01,7.90
2013,04,09,04,02,7.90
2013,04,09,04,03,7.90
2013,04,09,04,04,7.90
2013,04,09,04,05,7.90
2013,04,09,04,06,7.90
2013,04,09,04,07,7.90
2013,04,09,04,08,7.90
2013,04,09,04,09,7.90
2013,04,09,04,10,7.90
2013,04,09,04,11,7.90
2013,04,09,04,12,8.00
2013,04,09,04,13,8.00
2013,04,09,04,14,8.00
2013,04,09,04,15,8.00
2013,04,09,04,16,8.00
2013,04,09,04,17,8.10
2013,04,09,04,18,8.10
2013,04,09,04,19,8.20
2013,04,09,04,20,8.20
2013,04,09,04,21,8.20
2013,04,09,04,22,8.20
2013,04,09,04,23,8.30
2013,04,09,04,24,8.30
2013,04,09,04,25,8.30
2013,04,09,04,26,8.30
2013,04,09,04,27,8.30
2013,04,09,04,28,8.20
2013,04,09,04,29,8.20
2013,04,09,04,30,8.30
2013,04,09,04,31,8.30
2013,04,09,04,32,8.30
2013,04,09,04,33,8.30
2013,04,09,04,34,8.30
2013,04,09,04,35,8.30
2013,04,09,04,36,8.30
2013,04,09,04,37,8.30
2013,04,09,04,38,8.30
2013,04,09,04,39,8.30
2013,04,09,04,40,8.30
2013,04,09,04,41,8.30
2013,04,09,04,42,8.30
2013,04,09,04,43,8.30
2013,04,09,04,44,8.20
2013,04,09,04,45,8.20
2013,04,09,04,46,8.20
2013,04,09,04,47,8.20
2013,04,09,04,48,8.20
2013,04,09,04,49,8.20
2013,04,09,04,50,8.20
2013,04,09,04,51,8.20
2013,04,09,04,52,8.20
2013,04,09,04,53,8.10
2013,04,09,04,54,8.10
2013,04,09,04,55,8.10
2013,04,09,04,56,8.10
2013,04,09,04,57,8.10
2013,04,09,04,58,8.10
2013,04,09,04,59,8.10
2013,04,09,05,00,8.10
2013,04,09,05,01,8.10
2013,04,09,05,02,8.10
2013,04,09,05,03,8.00
2013,04,09,05,04,8.00
2013,04,09,05,05,8.00
2013,04,09,05,06,8.00
2013,04,09,05,07,8.00
2013,04,09,05,08,8.00
2013,04,09,05,09,7.90
2013,04,09,05,10,7.90
2013,04,09,05,11,7.90
2013,04,09,05,12,7.90
2013,04,09,05,13,7.90
2013,04,09,05,14,7.80
2013,04,09,05,15,7.80
2013,04,09,05,16,7.80
2013,04,09,05,17,7.80
2013,04,09,05,18,7.80
2013,04,09,05,19,7.80
2013,04,09,05,20,7.80
2013,04,09,05,21,7.80
2013,04,09,05,22,7.80
2013,04,09,05,23,7.80
2013,04,09,05,24,7.80
2013,04,09,05,25,7.70
2013,04,09,05,26,7.70
2013,04,09,05,27,7.70
2013,04,09,05,28,7.70
2013,04,09,05,29,7.60
2013,04,09,05,30,7.60
2013,04,09,05,31,7.50
2013,04,09,05,32,7.40
2013,04,09,05,33,7.40
2013,04,09,05,34,7.40
2013,04,09,05,35,7.30
2013,04,09,05,36,7.30
2013,04,09,05,37,7.30
2013,04,09,05,38,7.30
2013,04,09,05,39,7.30
2013,04,09,05,40,7.20
2013,04,09,05,41,7.20
2013,04,09,05,42,7.20
2013,04,09,05,43,7.20
2013,04,09,05,44,7.20
2013,04,09,05,45,7.10
2013,04,09,05,46,7.10
2013,04,09,05,47,7.10
2013,04,09,05,48,7.10
2013,04,09,05,49,7.00
2013,04,09,05,50,7.00
2013,04,09,05,51,6.90
2013,04,09,05,52,6.90
2013,04,09,05,53,6.90
2013,04,09,05,54,6.80
2013,04,09,05,55,6.80
2013,04,09,05,56,6.80
2013,04,09,05,57,6.80
2013,04,09,05,58,6.80
2013,04,09,05,59,6.80
2013,04,09,06,00,6.80
2013,04,09,06,01,6.80
2013,04,09,06,02,6.80
2013,04,09,06,03,6.80
2013,04,09,06,04,6.70
2013,04,09,06,05,6.70
2013,04,09,06,06,6.70
2013,04,09,06,07,6.70
2013,04,09,06,08,6.70
2013,04,09,06,09,6.70
2013,04,09,06,10,6.70
2013,04,09,06,11,6.70
2013,04,09,06,12,6.60
2013,04,09,06,13,6.60
2013,04,09,06,14,6.60
2013,04,09,06,15,6.60
2013,04,09,06,16,6.60
2013,04,09,06,17,6.60
2013,04,09,06,18,6.50
2013,04,09,06,19,6.50
2013,04,09,06,20,6.50
2013,04,09,06,21,6.50
2013,04,09,06,22,6.50
2013,04,09,06,23,6.50
2013,04,09,06,24,6.50
2013,04,09,06,25,6.50
2013,04,09,06,26,6.50
2013,04,09,06,27,6.50
2013,04,09,06,28,6.50
2013,04,09,06,29,6.40
2013,04,09,06,30,6.50
2013,04,09,06,31,6.40
2013,04,09,06,32,6.50
2013,04,09,06,33,6.50
2013,04,09,06,34,6.50
2013,04,09,06,35,6.40
2013,04,09,06,36,6.40
2013,04,09,06,37,6.40
2013,04,09,06,38,6.40
2013,04,09,06,39,6.40
2013,04,09,06,40,6.40
2013,04,09,06,41,6.40
2013,04,09,06,42,6.40
2013,04,09,06,43,6.40
2013,04,09,06,44,6.40
2013,04,09,06,45,6.40
2013,04,09,06,46,6.40
2013,04,09,06,47,6.40
2013,04,09,06,48,6.40
2013,04,09,06,49,6.40
2013,04,09,06,50,6.30
2013,04,09,06,51,6.30
2013,04,09,06,52,6.30
2013,04,09,06,53,6.30
2013,04,09,06,54,6.30
2013,04,09,06,55,6.30
2013,04,09,06,56,6.30
2013,04,09,06,57,6.30
2013,04,09,06,58,6.30
2013,04,09,06,59,6.30
2013,04,09,07,00,6.30
2013,04,09,07,01,6.30
2013,04,09,07,02,6.30
2013,04,09,07,03,6.30
2013,04,09,07,04,6.30
2013,04,09,07,05,6.30
2013,04,09,07,06,6.30
2013,04,09,07,07,6.30
2013,04,09,07,08,6.30
2013,04,09,07,09,6.30
2013,04,09,07,10,6.30
2013,04,09,07,11,6.30
2013,04,09,07,12,6.30
2013,04,09,07,13,6.30
2013,04,09,07,14,6.20
2013,04,09,07,15,6.20
2013,04,09,07,16,6.20
2013,04,09,07,17,6.20
2013,04,09,07,18,6.20
2013,04,09,07,19,6.30
2013,04,09,07,20,6.30
2013,04,09,07,21,6.30
2013,04,09,07,22,6.30
2013,04,09,07,23,6.30
2013,04,09,07,24,6.30
2013,04,09,07,25,6.30
2013,04,09,07,26,6.20
2013,04,09,07,27,6.20
2013,04,09,07,28,6.20
2013,04,09,07,29,6.20
2013,04,09,07,30,6.20
2013,04,09,07,31,6.20
2013,04,09,07,32,6.20
2013,04,09,07,33,6.20
2013,04,09,07,34,6.20
2013,04,09,07,35,6.20
2013,04,09,07,36,6.20
2013,04,09,07,37,6.10
2013,04,09,07,38,6.10
2013,04,09,07,39,6.10
2013,04,09,07,40,6.10
2013,04,09,07,41,6.10
2013,04,09,07,42,6.10
2013,04,09,07,43,6.10
2013,04,09,07,44,6.10
2013,04,09,07,45,6.10
2013,04,09,07,46,6.10
2013,04,09,07,47,6.10
2013,04,09,07,48,6.10
2013,04,09,07,49,6.10
2013,04,09,07,50,6.10
2013,04,09,07,51,6.10
2013,04,09,07,52,6.10
2013,04,09,07,53,6.10
2013,04,09,07,54,6.10
2013,04,09,07,55,6.10
2013,04,09,07,56,6.10
2013,04,09,07,57,6.10
2013,04,09,07,58,6.10
2013,04,09,07,59,6.10
2013,04,09,08,00,6.10
2013,04,09,08,01,6.10
2013,04,09,08,02,6.10
2013,04,09,08,03,6.10
2013,04,09,08,04,6.10
2013,04,09,08,05,6.10
2013,04,09,08,06,6.10
2013,04,09,08,07,6.10
2013,04,09,08,08,6.10
2013,04,09,08,09,6.10
2013,04,09,08,10,6.10
2013,04,09,08,11,6.10
2013,04,09,08,12,6.10
2013,04,09,08,13,6.10
2013,04,09,08,14,6.10
2013,04,09,08,15,6.20
2013,04,09,08,16,6.20
2013,04,09,08,17,6.20
2013,04,09,08,18,6.20
2013,04,09,08,19,6.20
2013,04,09,08,20,6.20
2013,04,09,08,21,6.20
2013,04,09,08,22,6.20
2013,04,09,08,23,6.20
2013,04,09,08,24,6.20
2013,04,09,08,25,6.20
2013,04,09,08,26,6.20
2013,04,09,08,27,6.20
2013,04,09,08,28,6.20
2013,04,09,08,29,6.20
2013,04,09,08,30,6.20
2013,04,09,08,31,6.20
2013,04,09,08,32,6.20
2013,04,09,08,33,6.20
2013,04,09,08,34,6.20
2013,04,09,08,35,6.20
2013,04,09,08,36,6.20
2013,04,09,08,37,6.20
2013,04,09,08,38,6.20
2013,04,09,08,39,6.20
2013,04,09,08,40,6.20
2013,04,09,08,41,6.20
2013,04,09,08,42,6.20
2013,04,09,08,43,6.30
2013,04,09,08,44,6.30
2013,04,09,08,45,6.30
2013,04,09,08,46,6.30
2013,04,09,08,47,6.30
2013,04,09,08,48,6.30
2013,04,09,08,49,6.30
2013,04,09,08,50,6.30
2013,04,09,08,51,6.30
2013,04,09,08,52,6.30
2013,04,09,08,53,6.30
2013,04,09,08,54,6.30
2013,04,09,08,55,6.30
2013,04,09,08,56,6.30
2013,04,09,08,57,6.30
2013,04,09,08,58,6.30
2013,04,09,08,59,6.30
2013,04,09,09,00,6.30
2013,04,09,09,01,6.30
2013,04,09,09,02,6.40
2013,04,09,09,03,6.40
2013,04,09,09,04,6.30
2013,04,09,09,05,6.30
2013,04,09,09,06,6.30
2013,04,09,09,07,6.30
2013,04,09,09,08,6.30
2013,04,09,09,09,6.30
2013,04,09,09,10,6.30
2013,04,09,09,11,6.30
2013,04,09,09,12,6.30
2013,04,09,09,13,6.30
2013,04,09,09,14,6.30
2013,04,09,09,15,6.30
2013,04,09,09,16,6.30
2013,04,09,09,17,6.30
2013,04,09,09,18,6.30
2013,04,09,09,19,6.40
2013,04,09,09,20,6.40
2013,04,09,09,21,6.40
2013,04,09,09,22,6.40
2013,04,09,09,23,6.40
2013,04,09,09,24,6.50
2013,04,09,09,25,6.50
2013,04,09,09,26,6.60
2013,04,09,09,27,6.60
2013,04,09,09,28,6.60
2013,04,09,09,29,6.60
2013,04,09,09,30,6.60
2013,04,09,09,31,6.60
2013,04,09,09,32,6.70
2013,04,09,09,33,6.70
2013,04,09,09,34,6.70
2013,04,09,09,35,6.70
2013,04,09,09,36,6.70
2013,04,09,09,37,6.70
2013,04,09,09,38,6.70
2013,04,09,09,39,6.70
2013,04,09,09,40,6.80
2013,04,09,09,41,6.80
2013,04,09,09,42,6.80
2013,04,09,09,43,6.80
2013,04,09,09,44,6.80
2013,04,09,09,45,6.80
2013,04,09,09,46,6.80
2013,04,09,09,47,6.80
2013,04,09,09,48,6.80
2013,04,09,09,49,6.80
2013,04,09,09,50,6.80
2013,04,09,09,51,6.80
2013,04,09,09,52,6.80
2013,04,09,09,53,6.80
2013,04,09,09,54,6.80
2013,04,09,09,55,6.80
2013,04,09,09,56,6.80
2013,04,09,09,57,6.80
2013,04,09,09,58,6.80
2013,04,09,09,59,6.80
2013,04,09,10,00,6.80
2013,04,09,10,01,6.90
2013,04,09,10,02,6.90
2013,04,09,10,03,6.90
2013,04,09,10,04,6.90
2013,04,09,10,05,6.90
2013,04,09,10,06,6.90
2013,04,09,10,07,6.90
2013,04,09,10,08,7.00
2013,04,09,10,09,7.00
2013,04,09,10,10,7.00
2013,04,09,10,11,7.00
2013,04,09,10,12,7.00
2013,04,09,10,13,7.00
2013,04,09,10,14,6.90
2013,04,09,10,15,7.00
2013,04,09,10,16,7.00
2013,04,09,10,17,7.00
2013,04,09,10,18,7.00
2013,04,09,10,19,7.00
2013,04,09,10,20,7.00
2013,04,09,10,21,7.00
2013,04,09,10,22,7.00
2013,04,09,10,23,7.00
2013,04,09,10,24,7.00
2013,04,09,10,25,7.00
2013,04,09,10,26,7.10
2013,04,09,10,27,7.10
2013,04,09,10,28,7.10
2013,04,09,10,29,7.10
2013,04,09,10,30,7.10
2013,04,09,10,31,7.10
2013,04,09,10,32,7.20
2013,04,09,10,33,7.20
2013,04,09,10,34,7.20
2013,04,09,10,35,7.20
2013,04,09,10,36,7.20
2013,04,09,10,37,7.20
2013,04,09,10,38,7.20
2013,04,09,10,39,7.20
2013,04,09,10,40,7.20
2013,04,09,10,41,7.20
2013,04,09,10,42,7.20
2013,04,09,10,43,7.20
2013,04,09,10,44,7.20
2013,04,09,10,45,7.20
2013,04,09,10,46,7.20
2013,04,09,10,47,7.20
2013,04,09,10,48,7.20
2013,04,09,10,49,7.20
2013,04,09,10,50,7.20
2013,04,09,10,51,7.20
2013,04,09,10,52,7.20
2013,04,09,10,53,7.20
2013,04,09,10,54,7.20
2013,04,09,10,55,7.20
2013,04,09,10,56,7.20
2013,04,09,10,57,7.20
2013,04,09,10,58,7.20
2013,04,09,10,59,7.20
2013,04,09,11,00,7.10
2013,04,09,11,01,7.10
2013,04,09,11,02,7.10
2013,04,09,11,03,7.20
2013,04,09,11,04,7.20
2013,04,09,11,05,7.20
2013,04,09,11,06,7.20
2013,04,09,11,07,7.20
2013,04,09,11,08,7.20
2013,04,09,11,09,7.20
2013,04,09,11,10,7.30
2013,04,09,11,11,7.30
2013,04,09,11,12,7.30
2013,04,09,11,13,7.30
2013,04,09,11,14,7.40
2013,04,09,11,15,7.40
2013,04,09,11,16,7.30
2013,04,09,11,17,7.40
2013,04,09,11,18,7.40
2013,04,09,11,19,7.40
2013,04,09,11,20,7.40
2013,04,09,11,21,7.30
2013,04,09,11,22,7.30
2013,04,09,11,23,7.30
2013,04,09,11,24,7.30
2013,04,09,11,25,7.30
2013,04,09,11,26,7.30
2013,04,09,11,27,7.30
2013,04,09,11,28,7.40
2013,04,09,11,29,7.40
2013,04,09,11,30,7.40
2013,04,09,11,31,7.40
2013,04,09,11,32,7.40
2013,04,09,11,33,7.40
2013,04,09,11,34,7.50
2013,04,09,11,35,7.50
2013,04,09,11,36,7.50
2013,04,09,11,37,7.60
2013,04,09,11,38,7.60
2013,04,09,11,39,7.60
2013,04,09,11,40,7.60
2013,04,09,11,41,7.60
2013,04,09,11,42,7.60
2013,04,09,11,43,7.60
2013,04,09,11,44,7.70
2013,04,09,11,45,7.70
2013,04,09,11,46,7.70
2013,04,09,11,47,7.70
2013,04,09,11,48,7.70
2013,04,09,11,49,7.80
2013,04,09,11,50,7.80
2013,04,09,11,51,7.80
2013,04,09,11,52,7.80
2013,04,09,11,53,7.80
2013,04,09,11,54,7.80
2013,04,09,11,55,7.80
2013,04,09,11,56,7.80
2013,04,09,11,57,7.90
2013,04,09,11,58,7.90
2013,04,09,11,59,7.90
2013,04,09,12,00,8.00
2013,04,09,12,01,8.00
2013,04,09,12,02,8.00
2013,04,09,12,03,8.00
2013,04,09,12,04,8.00
2013,04,09,12,05,8.10
2013,04,09,12,06,8.10
2013,04,09,12,07,8.10
2013,04,09,12,08,8.10
2013,04,09,12,09,8.10
2013,04,09,12,10,8.10
2013,04,09,12,11,8.10
2013,04,09,12,12,8.10
2013,04,09,12,13,8.10
2013,04,09,12,14,8.10
2013,04,09,12,15,8.10
2013,04,09,12,16,8.10
2013,04,09,12,17,8.10
2013,04,09,12,18,8.20
2013,04,09,12,19,8.20
2013,04,09,12,20,8.20
2013,04,09,12,21,8.20
2013,04,09,12,22,8.30
2013,04,09,12,23,8.30
2013,04,09,12,24,8.30
2013,04,09,12,25,8.40
2013,04,09,12,26,8.40
2013,04,09,12,27,8.40
2013,04,09,12,28,8.50
2013,04,09,12,29,8.50
2013,04,09,12,30,8.50
2013,04,09,12,31,8.50
2013,04,09,12,32,8.50
2013,04,09,12,33,8.50
2013,04,09,12,34,8.50
2013,04,09,12,35,8.50
2013,04,09,12,36,8.50
2013,04,09,12,37,8.50
2013,04,09,12,38,8.50
2013,04,09,12,39,8.50
2013,04,09,12,40,8.50
2013,04,09,12,41,8.50
2013,04,09,12,42,8.50
2013,04,09,12,43,8.60
2013,04,09,12,44,8.60
2013,04,09,12,45,8.60
2013,04,09,12,46,8.60
2013,04,09,12,47,8.60
2013,04,09,12,48,8.60
2013,04,09,12,49,8.60
2013,04,09,12,50,8.60
2013,04,09,12,51,8.60
2013,04,09,12,52,8.60
2013,04,09,12,53,8.60
2013,04,09,12,54,8.60
2013,04,09,12,55,8.60
2013,04,09,12,56,8.50
2013,04,09,12,57,8.60
2013,04,09,12,58,8.60
2013,04,09,12,59,8.60
2013,04,09,13,00,8.60
2013,04,09,13,01,8.60
2013,04,09,13,02,8.60
2013,04,09,13,03,8.70
2013,04,09,13,04,8.70
2013,04,09,13,05,8.70
2013,04,09,13,06,8.70
2013,04,09,13,07,8.70
2013,04,09,13,08,8.70
2013,04,09,13,09,8.70
2013,04,09,13,10,8.80
2013,04,09,13,11,8.80
2013,04,09,13,12,8.80
2013,04,09,13,13,8.80
2013,04,09,13,14,8.80
2013,04,09,13,15,8.80
2013,04,09,13,16,8.80
2013,04,09,13,17,8.80
2013,04,09,13,18,8.80
2013,04,09,13,19,8.80
2013,04,09,13,20,8.80
2013,04,09,13,21,8.80
2013,04,09,13,22,8.80
2013,04,09,13,23,8.90
2013,04,09,13,24,8.90
2013,04,09,13,25,8.90
2013,04,09,13,26,8.90
2013,04,09,13,27,8.90
2013,04,09,13,28,8.90
2013,04,09,13,29,9.00
2013,04,09,13,30,9.00
2013,04,09,13,31,9.00
2013,04,09,13,32,9.00
2013,04,09,13,33,9.10
2013,04,09,13,34,9.10
2013,04,09,13,35,9.10
2013,04,09,13,36,9.10
2013,04,09,13,37,9.10
2013,04,09,13,38,9.10
2013,04,09,13,39,9.10
2013,04,09,13,40,9.20
2013,04,09,13,41,9.20
2013,04,09,13,42,9.20
2013,04,09,13,43,9.10
2013,04,09,13,44,9.10
2013,04,09,13,45,9.10
2013,04,09,13,46,9.20
2013,04,09,13,47,9.20
2013,04,09,13,48,9.20
2013,04,09,13,49,9.20
2013,04,09,13,50,9.10
2013,04,09,13,51,9.10
2013,04,09,13,52,9.10
2013,04,09,13,53,9.00
2013,04,09,13,54,9.00
2013,04,09,13,55,8.90
2013,04,09,13,56,8.90
2013,04,09,13,57,8.90
2013,04,09,13,58,8.90
2013,04,09,13,59,8.80
2013,04,09,14,00,8.80
2013,04,09,14,01,8.80
2013,04,09,14,02,8.80
2013,04,09,14,03,8.80
2013,04,09,14,04,8.80
2013,04,09,14,05,8.80
2013,04,09,14,06,8.80
2013,04,09,14,07,8.80
2013,04,09,14,08,8.80
2013,04,09,14,09,8.80
2013,04,09,14,10,8.80
2013,04,09,14,11,8.70
2013,04,09,14,12,8.70
2013,04,09,14,13,8.70
2013,04,09,14,14,8.70
2013,04,09,14,15,8.70
2013,04,09,14,16,8.70
2013,04,09,14,17,8.70
2013,04,09,14,18,8.70
2013,04,09,14,19,8.70
2013,04,09,14,20,8.70
2013,04,09,14,21,8.70
2013,04,09,14,22,8.60
2013,04,09,14,23,8.60
2013,04,09,14,24,8.60
2013,04,09,14,25,8.70
2013,04,09,14,26,8.70
2013,04,09,14,27,8.70
2013,04,09,14,28,8.70
2013,04,09,14,29,8.70
2013,04,09,14,30,8.70
2013,04,09,14,31,8.70
2013,04,09,14,32,8.70
2013,04,09,14,33,8.70
2013,04,09,14,34,8.70
2013,04,09,14,35,8.70
2013,04,09,14,36,8.70
2013,04,09,14,37,8.70
2013,04,09,14,38,8.70
2013,04,09,14,39,8.70
2013,04,09,14,40,8.70
2013,04,09,14,41,8.70
2013,04,09,14,42,8.80
2013,04,09,14,43,8.80
2013,04,09,14,44,8.80
2013,04,09,14,45,8.80
2013,04,09,14,46,8.80
2013,04,09,14,47,8.80
2013,04,09,14,48,8.80
2013,04,09,14,49,8.80
2013,04,09,14,50,8.80
2013,04,09,14,51,8.80
2013,04,09,14,52,8.80
2013,04,09,14,53,8.80
2013,04,09,14,54,8.80
2013,04,09,14,55,8.80
2013,04,09,14,56,8.80
2013,04,09,14,57,8.90
2013,04,09,14,58,8.90
2013,04,09,14,59,8.90
2013,04,09,15,00,8.90
2013,04,09,15,01,8.90
2013,04,09,15,02,8.90
2013,04,09,15,03,8.90
2013,04,09,15,04,9.00
2013,04,09,15,05,9.00
2013,04,09,15,06,9.00
2013,04,09,15,07,9.10
2013,04,09,15,08,9.10
2013,04,09,15,09,9.10
2013,04,09,15,10,9.10
2013,04,09,15,11,9.10
2013,04,09,15,12,9.10
2013,04,09,15,13,9.20
2013,04,09,15,14,9.20
2013,04,09,15,15,9.20
2013,04,09,15,16,9.20
2013,04,09,15,17,9.20
2013,04,09,15,18,9.10
2013,04,09,15,19,9.10
2013,04,09,15,20,9.10
2013,04,09,15,21,9.20
2013,04,09,15,22,9.20
2013,04,09,15,23,9.20
2013,04,09,15,24,9.20
2013,04,09,15,25,9.20
2013,04,09,15,26,9.20
2013,04,09,15,27,9.20
2013,04,09,15,28,9.20
2013,04,09,15,29,9.30
2013,04,09,15,30,9.30
2013,04,09,15,31,9.30
2013,04,09,15,32,9.30
2013,04,09,15,33,9.30
2013,04,09,15,34,9.40
2013,04,09,15,35,9.40
2013,04,09,15,36,9.40
2013,04,09,15,37,9.40
2013,04,09,15,38,9.40
2013,04,09,15,39,9.40
2013,04,09,15,40,9.40
2013,04,09,15,41,9.50
2013,04,09,15,42,9.50
2013,04,09,15,43,9.50
2013,04,09,15,44,9.50
2013,04,09,15,45,9.50
2013,04,09,15,46,9.50
2013,04,09,15,47,9.50
2013,04,09,15,48,9.50
2013,04,09,15,49,9.50
2013,04,09,15,50,9.60
2013,04,09,15,51,9.60
2013,04,09,15,52,9.60
2013,04,09,15,53,9.60
2013,04,09,15,54,9.60
2013,04,09,15,55,9.60
2013,04,09,15,56,9.60
2013,04,09,15,57,9.60
2013,04,09,15,58,9.60
2013,04,09,15,59,9.60
2013,04,09,16,00,9.60
2013,04,09,16,01,9.60
2013,04,09,16,02,9.60
2013,04,09,16,03,9.60
2013,04,09,16,04,9.60
2013,04,09,16,05,9.60
2013,04,09,16,06,9.60
2013,04,09,16,07,9.60
2013,04,09,16,08,9.50
2013,04,09,16,09,9.50
2013,04,09,16,10,9.40
2013,04,09,16,11,9.40
2013,04,09,16,12,9.50
2013,04,09,16,13,9.50
2013,04,09,16,14,9.40
2013,04,09,16,15,9.40
2013,04,09,16,16,9.40
2013,04,09,16,17,9.40
2013,04,09,16,18,9.40
2013,04,09,16,19,9.40
2013,04,09,16,20,9.40
2013,04,09,16,21,9.40
2013,04,09,16,22,9.40
2013,04,09,16,23,9.40
2013,04,09,16,24,9.50
2013,04,09,16,25,9.50
2013,04,09,16,26,9.50
2013,04,09,16,27,9.50
2013,04,09,16,28,9.50
2013,04,09,16,29,9.50
2013,04,09,16,30,9.50
2013,04,09,16,31,9.50
2013,04,09,16,32,9.50
2013,04,09,16,33,9.50
2013,04,09,16,34,9.50
2013,04,09,16,35,9.50
2013,04,09,16,36,9.40
2013,04,09,16,37,9.40
2013,04,09,16,38,9.40
2013,04,09,16,39,9.40
2013,04,09,16,40,9.40
2013,04,09,16,41,9.50
2013,04,09,16,42,9.50
2013,04,09,16,43,9.60
2013,04,09,16,44,9.60
2013,04,09,16,45,9.60
2013,04,09,16,46,9.60
2013,04,09,16,47,9.60
2013,04,09,16,48,9.60
2013,04,09,16,49,9.60
2013,04,09,16,50,9.60
2013,04,09,16,51,9.60
2013,04,09,16,52,9.60
2013,04,09,16,53,9.50
2013,04,09,16,54,9.50
2013,04,09,16,55,9.50
2013,04,09,16,56,9.50
2013,04,09,16,57,9.50
2013,04,09,16,58,9.50
2013,04,09,16,59,9.40
2013,04,09,17,00,9.40
2013,04,09,17,01,9.40
2013,04,09,17,02,9.40
2013,04,09,17,03,9.40
2013,04,09,17,04,9.50
2013,04,09,17,05,9.50
2013,04,09,17,06,9.50
2013,04,09,17,07,9.50
2013,04,09,17,08,9.50
2013,04,09,17,09,9.60
2013,04,09,17,10,9.60
2013,04,09,17,11,9.60
2013,04,09,17,12,9.60
2013,04,09,17,13,9.50
2013,04,09,17,14,9.50
2013,04,09,17,15,9.40
2013,04,09,17,16,9.40
2013,04,09,17,17,9.40
2013,04,09,17,18,9.40
2013,04,09,17,19,9.40
2013,04,09,17,20,9.40
2013,04,09,17,21,9.30
2013,04,09,17,22,9.30
2013,04,09,17,23,9.30
2013,04,09,17,24,9.30
2013,04,09,17,25,9.30
2013,04,09,17,26,9.30
2013,04,09,17,27,9.30
2013,04,09,17,28,9.30
2013,04,09,17,29,9.30
2013,04,09,17,30,9.30
2013,04,09,17,31,9.30
2013,04,09,17,32,9.40
2013,04,09,17,33,9.40
2013,04,09,17,34,9.40
2013,04,09,17,35,9.40
2013,04,09,17,36,9.40
2013,04,09,17,37,9.40
2013,04,09,17,38,9.40
2013,04,09,17,39,9.40
2013,04,09,17,40,9.40
2013,04,09,17,41,9.40
2013,04,09,17,42,9.40
2013,04,09,17,43,9.40
2013,04,09,17,44,9.40
2013,04,09,17,45,9.30
2013,04,09,17,46,9.30
2013,04,09,17,47,9.30
2013,04,09,17,48,9.30
2013,04,09,17,49,9.30
2013,04,09,17,50,9.40
2013,04,09,17,51,9.40
2013,04,09,17,52,9.40
2013,04,09,17,53,9.40
2013,04,09,17,54,9.30
2013,04,09,17,55,9.30
2013,04,09,17,56,9.30
2013,04,09,17,57,9.30
2013,04,09,17,58,9.30
2013,04,09,17,59,9.30
2013,04,09,18,00,9.30
2013,04,09,18,01,9.30
2013,04,09,18,02,9.30
2013,04,09,18,03,9.30
2013,04,09,18,04,9.30
2013,04,09,18,05,9.30
2013,04,09,18,06,9.30